This demonstration page uses our WeatherBlox Daily Observations layout. Learn more.

Left ArrowRight Arrow

44.8408, -93.29828

Hourly Observations for June 28, 2015

Temp ( °F °C ) Dew Point ( °F °C ) Humidity (%) Winds ( mph kmh ) Pressure ( in mb ) Visibility ( mi km ) Precip ( " mm )
12:13 am 00:13 Cloudy with Light Rain 73 22.8 58 14.4 59 59 VRB 3 6 29.85 1011 10 16 0.00 0.03
12:53 am 00:53 Cloudy with Nearby Thunderstorms 67 19.4 63 17.2 87 87 SE 8 13 29.86 1011 9 14 0.01 0.25
1:17 am 01:17 Cloudy with Thunderstorms 67 19.4 62 16.7 84 84 ESE 12 19 29.85 1011 10 16 0.02 0.51
1:32 am 01:32 Cloudy with Nearby Thunderstorms 66 18.9 62 16.7 87 87 SE 9 15 29.85 1011 8 13 0.03 0.76
1:39 am 01:39 Cloudy 66 18.9 62 16.7 87 87 SE 8 13 29.85 1011 10 16 0.03 0.76
1:53 am 01:53 Cloudy 66 18.9 62 16.7 87 87 SE 13 20 29.83 1010 10 16 0.03 0.76
2:53 am 02:53 Mostly Cloudy 65 18.3 61 16.1 87 87 SE 8 13 29.84 1011 10 16 0.00 0.00
3:53 am 03:53 Cloudy 64 17.8 60 15.6 87 87 SE 10 17 29.82 1010 10 16 0.00 0.00
4:53 am 04:53 Mostly Cloudy 64 17.8 60 15.6 87 87 ESE 12 19 29.80 1009 10 16 0.00 0.00
5:53 am 05:53 Mostly Cloudy 64 17.8 60 15.6 87 87 SE 10 17 29.82 1010 10 16 0.00 0.00
6:53 am 06:53 Partly Cloudy 64 17.8 61 16.1 90 90 SE 7 11 29.80 1009 10 16 0.00 0.00
7:53 am 07:53 Mostly Cloudy 66 18.9 61 16.1 84 84 SE 7 11 29.80 1009 10 16 0.00 0.00
8:53 am 08:53 Mostly Cloudy 69 20.6 60 15.6 73 73 VRB 6 9 29.80 1009 10 16 0.00 0.00
9:53 am 09:53 Mostly Cloudy 70 21.1 60 15.6 71 71 S 3 6 29.81 1009 10 16 0.00 0.00
10:53 am 10:53 Mostly Cloudy 74 23.3 61 16.1 64 64 SSW 6 9 29.80 1009 10 16 0.00 0.00
11:53 am 11:53 Mostly Cloudy 76 24.4 61 16.1 60 60 VRB 3 6 29.80 1009 10 16 0.00 0.00
12:17 pm 12:17 Mostly Cloudy 76 24.4 61 16.1 60 60 WNW 3 6 29.77 1008 10 16 0.00 0.00
12:53 pm 12:53 Mostly Cloudy 77 25 60 15.6 56 56 NNW 5 7 29.80 1009 10 16 0.00 0.00
1:53 pm 13:53 Mostly Cloudy 78 25.6 59 15 52 52 NNW 6 9 29.79 1009 10 16 0.00 0.00
2:53 pm 14:53 Mostly Cloudy 79 26.1 59 15 50 50 NW 6 9 29.78 1008 10 16 0.00 0.00
3:53 pm 15:53 Mostly Cloudy 78 25.6 60 15.6 54 54 NW 8 13 29.76 1008 10 16 0.00 0.00
3:56 pm 15:56 Mostly Cloudy with Nearby Thunderstorms 79 26 61 16 54 54 NW 7 11 29.74 1007 10 16 0.00 0.00
4:23 pm 16:23 Cloudy with Strong Thunderstorms 69 20.6 63 17.2 81 81 NE 16 26 29.77 1008 2 3 0.01 0.25
4:27 pm 16:27 Cloudy with Thunderstorms 68 20 64 18 88 88 NE 14 22 29.83 1010 4 6 0.03 0.76
4:53 pm 16:53 Cloudy with Thunderstorms 67 19.4 63 17.2 87 87 WSW 12 19 29.82 1010 8 13 0.07 1.78
4:57 pm 16:57 Cloudy with Nearby Thunderstorms 67 19.4 63 17.2 87 87 WSW 8 13 29.83 1010 10 16 0.00 0.03
5:10 pm 17:10 Cloudy 67 19.4 63 17.2 87 87 SW 7 11 29.83 1010 10 16 0.00 0.03
5:53 pm 17:53 Cloudy 68 20 63 17.2 84 84 SSW 5 7 29.80 1009 10 16 0.00 0.03
6:53 pm 18:53 Partly Cloudy 70 21.1 64 17.8 82 82 WSW 5 7 29.80 1009 10 16 0.00 0.00
8:53 pm 20:53 Partly Cloudy 69 20.6 63 17.2 81 81 Calm 29.80 1009 10 16 0.00 0.00
9:53 pm 21:53 Partly Cloudy 69 20.6 63 17.2 81 81 WSW 5 7 29.81 1010 10 16 0.00 0.00
10:53 pm 22:53 Mostly Cloudy 68 20 64 17.8 87 87 SSW 3 6 29.81 1010 10 16 0.00 0.00
11:53 pm 23:53 Mostly Cloudy 68 20 65 18.3 90 90 W 5 7 29.80 1009 10 16 0.00 0.00

Powered by AerisWeather